Location: Unspecified
(0.0000°N, 0.0000°E)
Time: 08:48:43
(UTC+00:00)

PSAT 2 - Visible Passes

Search period start: 07 July 2020 00:00
Search period end: 17 July 2020 00:00
Orbit: 303 x 807 km, 28.5° (Epoch: 06 July)

Date Brightness Start Highest point End Pass type
(mag) Time Alt. Az. Time Alt. Az. Time Alt. Az.
07 Jul ? 19:51:18 10° SSW 19:53:33 21° SSW 19:53:33 21° SSW visible
08 Jul ? 19:45:55 10° SW 19:49:50 35° S 19:49:50 35° S visible
09 Jul ? 19:40:40 10° SW 19:46:03 55° SSE 19:46:18 55° SE visible
10 Jul ? 19:35:32 10° SW 19:40:56 78° SSE 19:42:56 42° ENE visible
10 Jul ? 21:18:15 10° W 21:18:43 12° W 21:18:43 12° W visible
11 Jul ? 19:30:32 10° WSW 19:35:50 75° NNW 19:39:39 21° NE visible
11 Jul ? 21:13:57 10° WNW 21:15:26 15° WNW 21:15:26 15° WNW visible
12 Jul ? 19:25:40 10° WSW 19:30:44 52° NNW 19:36:16 10° NE visible
12 Jul ? 21:10:02 10° WNW 21:12:09 14° NW 21:12:09 14° NW visible
13 Jul ? 19:20:58 10° W 19:25:39 36° NNW 19:30:47 10° NE visible
13 Jul ? 21:07:20 10° NNW 21:08:03 10° NNW 21:08:44 10° NNW visible
14 Jul ? 05:39:36 10° NW 05:43:16 50° NNE 05:46:23 10° ESE visible
14 Jul ? 19:16:28 10° W 19:20:37 25° NNW 19:25:08 10° NNE visible
15 Jul ? 03:55:13 14° N 03:56:31 15° NNE 03:58:53 10° ENE visible
15 Jul ? 05:34:20 10° WNW 05:38:16 90° N 05:41:35 10° ESE visible
15 Jul ? 19:12:14 10° WNW 19:15:37 18° NNW 19:19:14 10° NNE visible
16 Jul ? 03:51:49 23° NNE 03:51:49 23° NNE 03:54:50 10° E visible
16 Jul ? 05:29:13 10° WNW 05:33:12 52° SSW 05:36:33 10° SE visible
16 Jul ? 19:08:33 10° NW 19:10:40 13° NNW 19:12:52 10° N visible
